Flag for Germany Weather past 2 weeks in Pfaffenhofen an der Ilm, Bavaria, Germany

32 °F

Passing clouds.

Feels Like: 32 °F
Forecast: 28 / 38 °F
Wind: 2 mph from North

Location: Ingolstadt Airport

Current Time: Nov 27, 2015 at 10:09:19 PM

Latest Report: Nov 27, 2015 at 9:20 PM

Visibility: 6 mi

Pressure: 29.98 "Hg

Humidity: 93%

Dew point: 30 °F

Location of Pfaffenhofen an der IlmLocation

Historic Weather in Pfaffenhofen an der Ilm — Graph


Pfaffenhofen an der Ilm temperature yesterday

Maximum temperature yesterday: 39 °F (at 11:20 AM)
Minimum temperature yesterday: 34 °F (at 3:20 AM)
Average temperature yesterday: 36 °F

Past Weeks' High & Low Weather Summary

High64 °F (Nov 16, 2:20 PM)100% (Nov 12, 10:20 PM)30.42 "Hg (Nov 12, 10:20 PM)
Low21 °F (Nov 24, 8:03 AM)51% (Nov 18, 4:20 PM)29.42 "Hg (Nov 21, 1:20 PM)
Average42 °F83%30.00 "Hg
* Reported Nov 12 8:20 PM — Nov 27 8:20 PM, Pfaffenhofen an der Ilm, Weather by CustomWeather, © 2015

Note: Actual official high and low records may vary slightly from our data, if they occured in-between our weather recording intervals... More about our weather records


Pfaffenhofen an der Ilm weather history for previous 24 hours

Time TempWeatherWind HumidityBarometerVisibility
8:20 PM
Fri, Nov 27
32 °FPassing clouds.No wind93%29.98 "Hg5 mi
7:20 PM32 °FPassing clouds.2 mph93%30.01 "Hg5 mi
6:20 PM34 °FLow clouds.1 mph87%30.01 "Hg4 mi
5:20 PM34 °FLow clouds.2 mph87%30.01 "Hg4 mi
4:20 PM34 °FFog.5 mph93%30.01 "Hg3 mi
3:20 PM34 °FFog.1 mph93%30.04 "Hg3 mi
2:20 PM32 °FIce fog.2 mph100%30.04 "Hg2 mi
1:20 PM32 °FIce fog.5 mph93%30.07 "Hg2 mi
1:00 PM32 °FIce fog.2 mph93%30.07 "Hg1 mi
12:20 PM32 °FIce fog.3 mph100%30.07 "Hg1 mi
11:45 AM32 °FIce fog.3 mph93%30.09 "Hg1 mi
11:20 AM32 °FIce fog.2 mph100%30.09 "Hg1 mi
11:00 AM32 °FIce fog.3 mph100%30.09 "Hg1 mi
10:20 AM32 °FIce fog.3 mph100%30.09 "Hg1 mi
9:20 AM32 °FLow clouds.2 mph93%30.12 "Hg1 mi
8:49 AM32 °FIce fog.1 mph100%30.12 "Hg1 mi
8:01 AM30 °FIce fog.1 mph100%30.12 "Hg1 mi
7:20 AM28 °FIce fog.1 mph100%30.12 "Hg0 mi
6:54 AM30 °FIce fog.1 mph100%30.12 "Hg0 mi
6:20 AM32 °FIce fog.No wind93%30.12 "Hg2 mi
5:20 AM32 °FIce fog.2 mph100%30.12 "Hg3 mi
4:20 AM32 °FChilly.No wind100%30.12 "Hg0 mi
3:20 AM34 °FChilly.1 mph100%30.12 "Hg0 mi
2:20 AM34 °FChilly.No wind100%30.12 "Hg0 mi
1:20 AM34 °FChilly.1 mph100%30.12 "Hg1 mi
12:20 AM34 °FChilly.No wind100%30.12 "Hg1 mi
11:20 PM
Thu, Nov 26
34 °FChilly.2 mph93%30.12 "Hg1 mi
10:20 PM34 °FChilly.2 mph100%30.12 "Hg0 mi
Weather by CustomWeather, © 2015

See weather overviewHow to use our weather pages